K4FDS Weather Reports


time (UTC)temp
C
wind
direction
speed
KPH
gust
KPH
rain 1hr
cm
rain 24hr
cm
rain mn
cm
humidity
%
barometer
mb
20260508071930 7 249 1.6 4.8 0.00 0.00 0.00 72 1011.8
20260508064930 8 308 0.0 1.6 0.00 0.00 0.00 70 1011.5
20260508061930 8 305 0.0 0.0 0.00 0.00 0.00 74 1011.7
20260508054930 8 227 1.6 3.2 0.00 0.00 0.00 71 1011.2
20260508051930 10 265 0.0 1.6 0.00 0.00 0.00 63 1010.6
20260508044930 8 240 0.0 1.6 0.00 0.00 0.00 74 1010.6
20260508041930 9 349 0.0 1.6 0.00 0.00 0.00 70 1010.4
20260508034930 17 192 1.6 4.8 0.00 0.10 0.00 64 1004.6
20260508031929 17 192 1.6 4.8 0.00 0.10 0.00 64 1004.6
20260508024929 17 192 1.6 4.8 0.00 0.10 0.00 64 1004.6
20260508021929 17 192 1.6 4.8 0.00 0.10 0.00 64 1004.6
20260508014929 17 192 1.6 4.8 0.00 0.10 0.00 64 1004.6
20260508011929 17 192 1.6 4.8 0.00 0.10 0.00 64 1004.6
20260508004929 17 192 1.6 4.8 0.00 0.10 0.00 64 1004.6
20260508001929 17 192 1.6 4.8 0.00 0.10 0.00 64 1004.6
20260507234929 17 192 1.6 4.8 0.00 0.10 0.00 64 1004.6
20260507231929 17 192 1.6 4.8 0.00 0.10 0.00 64 1004.6
20260507224929 17 192 1.6 4.8 0.00 0.10 0.00 64 1004.6
20260507221929 17 192 1.6 4.8 0.00 0.10 0.00 64 1004.6
20260507214929 17 192 1.6 4.8 0.00 0.10 0.00 64 1004.6
20260507211929 17 192 1.6 4.8 0.00 0.10 0.00 64 1004.6
20260507204929 15 169 0.0 4.8 0.00 0.10 0.00 69 1005.7
20260507201929 15 169 0.0 4.8 0.00 0.10 0.00 69 1005.7
20260507194929 15 169 0.0 4.8 0.00 0.10 0.00 69 1005.7
20260507191929 15 277 0.0 1.6 0.00 0.10 0.00 76 1005.8
20260507184929 13 8 0.0 1.6 0.00 0.10 0.00 75 1006.8
20260507181929 13 8 0.0 1.6 0.00 0.10 0.00 75 1006.8
20260507174929 13 0 1.6 3.2 0.00 0.10 0.00 75 1006.8
20260507171929 13 9 1.6 3.2 0.00 0.10 0.00 75 1007.1
20260507164929 13 321 0.0 3.2 0.00 0.10 0.00 77 1007.1
20260507161929 13 351 3.2 4.8 0.00 0.10 0.00 79 1006.9
20260507154929 14 326 1.6 4.8 0.00 0.10 0.00 76 1007.3
20260507151929 15 3 3.2 8.0 0.00 0.10 0.00 76 1006.9
20260507144929 15 3 3.2 8.0 0.00 0.10 0.00 76 1006.9
20260507141929 15 357 1.6 4.8 0.00 0.10 0.00 75 1006.9
20260507134929 15 343 1.6 3.2 0.00 0.15 0.00 77 1007.0
20260507131929 15 343 1.6 3.2 0.00 0.15 0.00 77 1007.0
20260507124928 15 345 1.6 3.2 0.00 0.15 0.00 77 1007.1
20260507121929 15 323 0.0 1.6 0.00 0.15 0.00 80 1006.9
20260507114928 15 3 0.0 1.6 0.00 0.15 0.00 82 1006.9
20260507111928 15 349 0.0 1.6 0.00 0.18 0.00 82 1006.3
20260507104928 15 321 1.6 1.6 0.00 0.18 0.00 80 1006.4
20260507101928 15 341 1.6 3.2 0.00 0.18 0.00 82 1006.4
20260507094928 15 0 0.0 1.6 0.00 0.18 0.00 83 1006.1
20260507091928 15 330 1.6 1.6 0.00 0.18 0.00 83 1005.9
20260507084928 16 333 0.0 1.6 0.00 0.18 0.00 84 1006.3
20260507081928 16 328 0.0 1.6 0.00 0.18 0.00 82 1006.0
20260507074928 16 140 0.0 3.2 0.00 0.18 0.00 82 1006.0